Raleigh International Airport Airport (RDU)

 

Airport Diagram
Current Weather/Forecast (VFR Conditions)
METAR KRDU 070951Z 24003KT 10SM FEW120 SCT250 22/21 A2992 RMK AO2 SLP125 T02170206
TAF KRDU 070527Z 0706/0806 24006KT P6SM FEW120 BKN250 FM071200 33006KT P6SM SCT250 FM071700 04007KT P6SM BKN060

All Charts
General
Chart Name Download
AIRPORT DIAGRAM
TAKEOFF MINIMUMS
DIVERSE VECTOR AREA
ALTERNATE MINIMUMS
HOT SPOT

Departures
Chart Name Download
BEXGO THREE (RNAV)
BLUE DEVIL SEVEN
FAYETTEVILLE FOUR
HOOKZ THREE (RNAV)
HURIC THREE (RNAV)
LWOOD THREE (RNAV)
OXFRD THREE (RNAV)
PACKK EIGHT
RALEIGH NINE
RALEIGH NINE, CONT.1
ROZBO THREE (RNAV)
SHPRD THREE (RNAV)
TAR HEEL ONE

Arrivals
Chart Name Download
ALDAN TWO (RNAV)
ALDAN TWO (RNAV), CONT.1
ARGAL SIX
BLOGS TWO (RNAV)
BRADE SIX
BUZZY NINE
KAROO TWO (RNAV)
KAROO TWO (RNAV), CONT.1
MALNR FOUR (RNAV)
MALNR FOUR (RNAV), CONT.1
SOUTH BOSTON SEVEN

Approaches
Chart Name Download
ILS OR LOC RWY 05L
ILS OR LOC RWY 05R
ILS OR LOC RWY 23L
ILS OR LOC RWY 23R
ILS RWY 05R (SA CAT I - II)
ILS RWY 23R (CAT II - III)
RNAV (RNP) Z RWY 05L
RNAV (RNP) Z RWY 05R
RNAV (RNP) Z RWY 23L
RNAV (RNP) Z RWY 23R
RNAV (GPS) RWY 32
RNAV (GPS) Y RWY 05L
RNAV (GPS) Y RWY 05R
RNAV (GPS) Y RWY 23L
RNAV (GPS) Y RWY 23R
VOR RWY 05R
VOR RWY 23L
VOR RWY 32


Inbound Traffic (Arrivals)

No inbound traffic.


Outbound Traffic (Departures)

No outbound traffic.